Weather in Verkhneberyozovskiy

Kazakhstan     50°16′31″N   82°12′55″E
temp.,
°C
wind,
m/s
gust,
m/s
humid.,
%
clouds,
%
prec.,
mm/h
press.,
hPa
HPBL,
m
23 june, wed
wed2300:00+8s1186100 0.3 101510
03:00+7se2295100 1.0 101641
06:00+8se129379 1.0 101795
09:00+13ssw347689 1.8 1016734
12:00+16ssw4564100 4.3 10151473
15:00+14ese4679100 2.3 1013261
18:00+17se5762100 2.7 10111558
21:00+13se51168100 0.0 1008281
24 june, thu
thu2400:00+11sse71591100 3.9 1006924
03:00+12s61590100 6.4 10031042
06:00+10wsw279426 8.3 1004431
09:00+11sw71178100 0.4 10061053
12:00+12sw71170100 0.5 10071344
15:00+12ssw6976100 0.2 10081172
18:00+11wsw51080100 0.5 1009856
21:00+9ssw4894100 0.6 1010445
25 june, fri
fri2500:00+9sw51095100 1.5 1010555
03:00+9wsw3698100 0.8 1009370
06:00+10wnw3798100 1.8 1011429
09:00+12nw368383 0.6 1012680
12:00+15nw3469100 2.4 10131364
15:00+16wnw3465100 1.9 10131181
18:00+15nw236899 3.1 1013602
21:00+11ne2278100 0.9 101410
26 june, sat
sat2600:00+9ene11825 0.9 101410
03:00+8e11854 0.0 101310
06:00+9ene1186100 0.0 101452
09:00+14nne2271100 0.0 1014414
12:00+17n2251100 0.0 10131350
15:00+18nnw344788 0.0 10121662
18:00+18nnw46605 0.0 10131340
21:00+11n348060 0.0 101541
27 june, sun
sun2700:00+10n22805 0.0 101618
03:00+8n22875 0.0 101610
06:00+10ene118162 0.0 101754
09:00+15wnw01645 0.0 1017541
12:00+19nw225014 0.0 10161566
15:00+20nnw22455 0.0 10151864
18:00+20nne11485 0.0 10141491
21:00+14ene2265100 0.0 101511